Simultaneous Nadir Overpasses (SNOs) Predictions

Prediction of SNOs between METOP-B and NOAA-19 Satellite Orbit:

Table of predicted SNOs for the next 14.0 days since TLE Epoch: 6/8/2017
Index Date (METOP-B) Time (METOP-B) Lat,Lon (METOP-B) SZA (METOP-B ) Date (NOAA-19) Time (NOAA-19) Lat,Lon (NOAA-19) SZA (NOAA-19 ) Distance(km) Time Diff (sec)
1 06/14/2017 14:14:27 77.53, -27.51 54.25 06/14/2017 14:13:19 77.54, -30.10 54.20 62.12 68
2 06/14/2017 15:05:15 -77.25, 138.56 126.07 06/14/2017 15:04:14 -77.25, 138.53 126.06 1.10 61
3 06/14/2017 15:55:55 77.25, -54.08 53.95 06/14/2017 15:55:13 77.23, -54.11 53.92 2.90 42
4 06/14/2017 16:46:37 -77.23, 113.13 126.09 06/14/2017 16:46:15 -77.23, 113.13 126.09 0.36 22
5 06/14/2017 17:37:17 77.23, -79.50 53.92 06/14/2017 17:37:14 77.20, -79.50 53.89 3.34 3
6 06/14/2017 18:27:59 -77.21, 87.71 126.12 06/14/2017 18:28:16 -77.21, 87.74 126.11 0.79 17
7 06/14/2017 19:18:39 77.22,-104.92 53.90 06/14/2017 19:19:16 77.22,-105.08 53.90 3.90 37
8 06/14/2017 20:09:21 -77.19, 62.29 126.14 06/14/2017 20:10:17 -77.18, 62.35 126.14 1.61 56
9 06/14/2017 21:00:02 77.15,-130.53 53.82 06/14/2017 21:01:16 77.16,-130.28 53.84 6.24 74




NCC Satellite Simultaneous Nadir Overpasses (SNOs) Prediction Service
